Location: Arbon
(43.0005°N, 0.7472°E)
Time: 23:24:31
(UTC+00:00)

Courier 1B Rocket - Pass Details

Date: 28 November 2020
Orbit: 920 x 1202 km, 28.2° (Epoch: 22 January)

Event Time Altitude Azimuth Distance (km) Brightness Sun altitude
Rises 08:35:39 0° 251° (WSW) 4,064 8.0 12.3°
Reaches altitude 10° 08:39:08 10° 238° (WSW) 3,072 7.5 12.7°
Maximum altitude 08:44:55 24° 188° (S) 2,149 7.5 13.4°
Drops below altitude 10° 08:50:27 10° 138° (SE) 2,927 10.9 14.1°
Sets 08:53:41 0° 125° (SE) 3,832 9.7 14.5°
